[[{"header":{"parameterUnit":"m.s-1","parameterCategory":1,"la1":30.2991,"la2":30.254,"lo1":-89.0895,"lo2":-89.0444,"dy":0.0017,"dx":0.0017,"nx":28,"ny":28,"refTime":"2025-06-19T03:00:00:Z","depth":0,"parameterNumber":2,"parameterNumberName":"U-component_of_WINDS"},"data":[0,0,0,0,0,0,0,0,0,0,0,0,0,0,0,0,0,0,0,0,0,0,0,0,0,0,0,0,0,0,0,0,0,0,0,0,0,0,0,0,0,0,0,0,0,0,0,0,0,0,0,0,0,0,0,0,0,0,2.3902,2.3902,0,2.39,2.39,2.39,2.3839,2.3838,2.3836,2.3835,2.3832,2.3833,2.3835,0,0,0,0,0,0,0,0,0,0,0,0,0,2.3851,2.3853,2.3902,2.3902,2.3902,2.39,2.39,2.39,2.384,2.3838,2.3836,2.3834,2.3831,2.3833,2.3835,0,0,0,0,0,0,0,0,0,0,0,0,0,2.3864,2.3853,2.3902,2.3872,2.3869,2.39,2.39,2.39,2.384,2.3838,2.3835,2.3833,2.3831,2.3833,2.3835,2.3894,0,0,2.3841,2.3842,0,0,0,0,0,0,0,0,2.3863,2.3866,2.3876,2.3874,2.3871,2.3867,2.3881,2.3898,2.3841,2.3851,2.3835,2.3832,2.3846,2.3846,2.3851,2.3894,2.3894,2.3841,2.3843,2.3844,2.3844,0,0,0,0,0,0,0,2.3862,2.3865,2.3901,2.3876,2.3873,2.3857,2.3856,2.3884,2.3861,2.385,2.3846,2.3846,2.3844,2.3849,2.385,2.3894,2.3841,2.3843,2.3844,2.3845,2.3982,2.3984,0,0,0,0,0,0,2.3866,2.3865,2.3901,2.3901,2.3861,2.386,2.3859,2.3871,2.3861,2.3857,2.3848,2.3843,2.3847,2.3848,2.385,2.3916,2.3844,2.3845,2.3847,2.3979,2.3982,2.3985,0,0,0,0,0,0,2.3865,2.387,2.3901,2.3882,2.3885,2.3864,2.3877,2.3872,2.3877,2.386,2.3855,2.3858,2.3845,2.3847,2.3883,2.3915,2.3846,2.3848,2.3977,2.398,2.3984,2.405,0,0,0,0,0,0,2.3864,2.387,2.3893,2.3883,2.3886,2.3935,2.3879,2.3874,2.3881,2.3875,2.3868,2.3864,2.3843,2.388,2.3885,2.3917,2.385,2.3974,2.3978,2.3983,2.4045,2.4055,2.4064,0,0,0,0,0,2.3862,2.3913,2.3895,2.3899,2.3915,2.3937,2.3939,2.3914,2.3884,2.3906,2.3894,2.3864,2.3911,2.3884,2.3889,2.3922,2.3971,2.3977,2.3982,2.404,2.4053,2.4064,0,0,0,0,0,0,2.3928,2.3911,2.3891,2.3939,2.394,2.3927,2.3954,2.3929,2.3938,2.3932,2.3901,2.3899,2.3939,2.3935,2.3905,2.3977,2.3936,2.3942,2.3978,2.3991,2.4,2.3999,2.3852,0,0,0,0,0,2.3948,2.3968,2.3952,2.3996,2.3998,2.3976,2.3985,2.3966,2.3965,2.3965,2.3956,2.3956,2.397,2.3981,2.3993,2.4044,2.404,2.4069,2.4079,2.4087,2.4092,2.4115,2.4127,2.4003,2.4003,2.4002,0,0,2.3989,2.3982,2.3997,2.4009,2.4007,2.4027,2.3977,2.4001,2.4015,2.3969,2.4001,2.3994,2.3992,2.4035,2.4054,2.4032,2.4126,2.4094,2.4101,2.4101,2.4122,2.4134,2.4144,2.4006,2.4006,2.4005,0,0,2.4074,2.4073,2.4107,2.4106,2.4104,2.4089,2.4098,2.4088,2.4081,2.4113,2.4078,2.4094,2.4121,2.4119,2.4122,2.4205,2.4176,2.421,2.426,2.4283,2.4293,2.4301,2.4327,2.4337,2.4216,2.4216,2.4216,0,2.4126,2.4155,2.4129,2.4154,2.4159,2.4118,2.4151,2.4152,2.4154,2.4158,2.4134,2.4164,2.416,2.42,2.422,2.4225,2.4232,2.4209,2.4294,2.4302,2.4309,2.4334,2.4344,2.422,2.4219,2.4219,2.4218,0,2.4217,2.4238,2.4267,2.4268,2.4277,2.4307,2.4283,2.4294,2.4274,2.4261,2.4292,2.4286,2.4295,2.4304,2.4285,2.434,2.4327,2.4299,2.4257,2.4325,2.4348,2.4357,2.4225,2.4224,2.4223,2.4222,0,0,2.4343,2.4328,2.4339,2.4337,2.4331,2.4346,2.4373,2.4381,2.439,2.4393,2.4413,2.4436,2.4409,2.4412,2.4393,2.4413,2.4474,2.4383,2.4382,2.4397,2.4531,2.455,2.4561,2.4457,2.4458,2.446,2.453,0,2.4423,2.4468,2.4443,2.4491,2.4508,2.4468,2.4491,2.4489,2.4477,2.4489,2.4476,2.4491,2.4457,2.4458,2.4477,2.4463,2.4501,2.4458,2.4472,2.4473,2.4471,2.4574,2.4594,2.4661,2.4539,2.4541,2.4542,0,2.4522,2.4527,2.4576,2.4563,2.4569,2.459,2.4594,2.4607,2.4603,2.4593,2.4596,2.457,2.4594,2.4554,2.4584,2.4556,2.4561,2.4555,2.4557,2.4555,2.451,2.4571,2.4682,2.4691,2.4556,2.4555,2.4554,0,2.4604,2.4624,2.4654,2.4655,2.4642,2.4657,2.4652,2.4646,2.4651,2.4655,2.4658,2.4665,2.4668,2.4673,2.4649,2.4623,2.4682,2.4641,2.4672,2.4672,2.4684,2.4683,2.4794,2.4693,2.4692,2.4692,2.4692,0,2.4693,2.4724,2.469,2.4709,2.4742,2.4713,2.4746,2.4737,2.4731,2.4746,2.4713,2.4728,2.4697,2.4708,2.469,2.4716,2.4719,2.471,2.4704,2.4711,2.4712,2.4712,2.4705,2.4695,2.4694,2.4694,2.4693,0,2.479,2.4769,2.4799,2.4784,2.4781,2.4805,2.4791,2.4807,2.4793,2.4812,2.4815,2.4793,2.4804,2.4781,2.479,2.4778,2.4814,2.4803,2.4815,2.481,2.4842,2.4838,2.4954,2.4966,2.486,2.4861,2.4862,0,2.4847,2.4869,2.4855,2.4863,2.4859,2.4873,2.4877,2.485,2.4856,2.4852,2.4867,2.4876,2.4881,2.49,2.4884,2.489,2.4877,2.4917,2.4877,2.4882,2.4873,2.4871,2.4871,2.4924,2.4925,2.4927,2.4927,0,2.4949,2.4937,2.4945,2.4949,2.4955,2.4958,2.4957,2.4965,2.4936,2.4944,2.4955,2.4959,2.4967,2.4974,2.4976,2.497,2.4943,2.494,2.4947,2.4953,2.4958,2.4952,2.4834,2.4937,2.4936,2.4936,2.4935,2.4935,2.5025,2.5041,2.5033,2.5043,2.5039,2.5039,2.5052,2.5039,2.5047,2.5051,2.5035,2.5048,2.5041,2.504,2.5037,2.5047,2.5028,2.5039,2.5042,2.5044,2.5047,2.4959,2.5047,2.5047,2.5047,2.5047,2.5046,0,2.5122,2.5114,2.5123,2.5123,2.513,2.5104,2.5102,2.5109,2.5122,2.5117,2.5122,2.5133,2.514,2.5125,2.5129,2.5139,2.5126,2.5141,2.5138,2.5136,2.5065,2.5057,2.515,2.515,2.515,2.515,2.515,2.515,2.5173,2.5198,2.5185,2.5208,2.52,2.5212,2.5213,2.5212,2.5208,2.5221,2.5226,2.5216,2.5206,2.5209,2.5214,2.5209,2.521,2.5228,2.5219,2.5152,2.5142,2.5132,2.5124,2.523,2.523,2.5289,2.5289,2.529]},{"header":{"parameterUnit":"m.s-1","parameterCategory":1,"la1":30.2991,"la2":30.254,"lo1":-89.0895,"lo2":-89.0444,"dy":0.0017,"dx":0.0017,"nx":28,"ny":28,"refTime":"2025-06-19T03:00:00:Z","depth":0,"parameterNumber":3,"parameterNumberName":"V-component_of_WINDS"},"data":[0,0,0,0,0,0,0,0,0,0,0,0,0,0,0,0,0,0,0,0,0,0,0,0,0,0,0,0,0,0,0,0,0,0,0,0,0,0,0,0,0,0,0,0,0,0,0,0,0,0,0,0,0,0,0,0,0,0,4.5328,4.5329,0,4.5414,4.5415,4.5416,4.5373,4.5371,4.5369,4.5367,4.5451,4.5455,4.5459,0,0,0,0,0,0,0,0,0,0,0,0,0,4.512,4.5124,4.5328,4.5329,4.533,4.5414,4.5415,4.5416,4.5374,4.5371,4.5368,4.5366,4.5449,4.5454,4.5459,0,0,0,0,0,0,0,0,0,0,0,0,0,4.5209,4.5126,4.5328,4.5319,4.5319,4.5414,4.5415,4.5416,4.5374,4.5371,4.5368,4.5364,4.5447,4.5454,4.546,4.5567,0,0,4.548,4.5483,0,0,0,0,0,0,0,0,4.5204,4.5216,4.5319,4.532,4.532,4.538,4.5372,4.5467,4.5375,4.5353,4.5367,4.5363,4.5429,4.5437,4.546,4.5571,4.5574,4.548,4.5484,4.5487,4.5489,0,0,0,0,0,0,0,4.5198,4.5212,4.5362,4.5321,4.5321,4.5309,4.5318,4.539,4.5409,4.5355,4.5352,4.5363,4.5429,4.5454,4.5462,4.5575,4.548,4.5486,4.549,4.5492,4.5774,4.5777,0,0,0,0,0,0,4.5193,4.5208,4.5359,4.5364,4.5253,4.5315,4.5325,4.5364,4.5408,4.5411,4.5366,4.5361,4.5445,4.5455,4.5465,4.559,4.5487,4.5493,4.5497,4.577,4.5775,4.5778,0,0,0,0,0,0,4.5188,4.5207,4.5355,4.5285,4.5303,4.5322,4.5366,4.5367,4.5393,4.5416,4.5419,4.5389,4.5443,4.5456,4.5541,4.5593,4.5496,4.5502,4.5766,4.5772,4.5776,4.5844,0,0,0,0,0,0,4.5183,4.5205,4.5248,4.5287,4.5307,4.5433,4.5369,4.5371,4.5404,4.5399,4.5438,4.5442,4.5441,4.5532,4.5548,4.56,4.5507,4.5761,4.5768,4.5775,4.5837,4.5851,4.5862,0,0,0,0,0,4.5175,4.5263,4.525,4.5269,4.5361,4.5436,4.5447,4.5446,4.5409,4.545,4.5465,4.544,4.5585,4.5541,4.5558,4.5613,4.5758,4.5766,4.5774,4.5831,4.5848,4.5862,0,0,0,0,0,0,4.5228,4.5268,4.5254,4.5357,4.5394,4.5428,4.5481,4.5464,4.5511,4.5503,4.5498,4.5507,4.5596,4.5613,4.5564,4.5717,4.5665,4.5677,4.5702,4.5719,4.5731,4.5724,4.5512,0,0,0,0,0,4.5252,4.5312,4.5342,4.543,4.5449,4.5462,4.5494,4.549,4.5527,4.5542,4.5563,4.5598,4.5651,4.5686,4.5736,4.5839,4.5846,4.5885,4.5898,4.5908,4.5918,4.5971,4.5988,4.5805,4.5805,4.5805,0,0,4.5302,4.5331,4.5368,4.5441,4.5469,4.5528,4.5475,4.5541,4.5584,4.5551,4.5633,4.565,4.5688,4.5782,4.5825,4.58,4.597,4.5919,4.5927,4.5931,4.5981,4.5999,4.6014,4.5811,4.581,4.5809,0,0,4.5422,4.5451,4.5526,4.5555,4.5598,4.5605,4.5623,4.5661,4.5671,4.5753,4.5729,4.5779,4.5871,4.5899,4.5925,4.6054,4.6032,4.607,4.6137,4.6188,4.6203,4.6215,4.6259,4.6275,4.608,4.6081,4.6081,0,4.5478,4.5568,4.5567,4.5634,4.5665,4.5639,4.5714,4.5741,4.5798,4.5819,4.579,4.5904,4.5928,4.6027,4.6058,4.6081,4.6099,4.6065,4.6201,4.6214,4.6225,4.6267,4.6283,4.6085,4.6084,4.6084,4.6083,0,4.5633,4.5696,4.5751,4.5807,4.5845,4.5915,4.5922,4.596,4.5952,4.5962,4.6044,4.6073,4.6127,4.615,4.6143,4.6247,4.623,4.6202,4.6149,4.6247,4.6286,4.6302,4.6091,4.6089,4.6088,4.6087,0,0,4.579,4.5843,4.5863,4.5887,4.5932,4.5979,4.6047,4.6101,4.6132,4.6172,4.6227,4.6304,4.6277,4.6307,4.6302,4.6348,4.6445,4.6313,4.6314,4.6335,4.6558,4.6579,4.6597,4.6431,4.6434,4.6437,4.6554,0,4.5912,4.6033,4.6032,4.6143,4.6199,4.6174,4.6232,4.6265,4.6275,4.6323,4.6334,4.6388,4.635,4.6367,4.6411,4.6424,4.6489,4.6416,4.648,4.6482,4.647,4.6618,4.664,4.675,4.657,4.6572,4.6574,0,4.6071,4.6115,4.6232,4.6266,4.6289,4.6342,4.639,4.6437,4.6472,4.6476,4.6508,4.6496,4.6562,4.6509,4.6599,4.6548,4.6574,4.6584,4.6588,4.6593,4.6533,4.6625,4.6785,4.6801,4.6598,4.6597,4.6595,0,4.617,4.626,4.634,4.6362,4.6404,4.6441,4.646,4.6492,4.6524,4.6565,4.6585,4.6634,4.666,4.6696,4.6696,4.6658,4.6786,4.6733,4.6789,4.6789,4.6816,4.6814,4.6982,4.6836,4.6836,4.6836,4.6835,0,4.6305,4.6377,4.6385,4.6435,4.6513,4.6511,4.6588,4.6603,4.6631,4.6681,4.6662,4.6709,4.6707,4.6754,4.6754,4.6827,4.6839,4.6843,4.6842,4.6844,4.6843,4.686,4.6851,4.684,4.6839,4.6838,4.6837,0,4.643,4.6439,4.6525,4.6557,4.6567,4.6623,4.665,4.6695,4.6704,4.6767,4.6782,4.6795,4.6849,4.6853,4.6915,4.6915,4.7002,4.6994,4.6991,4.6989,4.7044,4.7038,4.7226,4.725,4.7091,4.7092,4.7094,0,4.6515,4.6569,4.6608,4.6641,4.6662,4.6715,4.6747,4.6746,4.678,4.6822,4.6862,4.6914,4.6956,4.7043,4.7057,4.7103,4.7095,4.7157,4.7101,4.7101,4.7093,4.7089,4.7093,4.7168,4.717,4.7171,4.7172,0,4.6664,4.6665,4.6713,4.6762,4.6801,4.684,4.6875,4.6903,4.6905,4.6944,4.6999,4.7032,4.7095,4.7146,4.7192,4.7209,4.719,4.719,4.7205,4.7207,4.7202,4.7203,4.7019,4.7185,4.7184,4.7183,4.7182,4.7182,4.677,4.6816,4.685,4.6903,4.693,4.6963,4.7007,4.7021,4.7068,4.712,4.7116,4.7176,4.7207,4.7266,4.7287,4.7333,4.7311,4.7334,4.7339,4.7344,4.7349,4.7196,4.7341,4.7341,4.734,4.734,4.734,0,4.6916,4.6936,4.6985,4.7036,4.7077,4.7058,4.7095,4.713,4.7184,4.7215,4.7257,4.7319,4.7368,4.7385,4.7432,4.7465,4.7458,4.7478,4.7474,4.7478,4.7366,4.7348,4.7483,4.7483,4.7483,4.7483,4.7483,4.7483,4.6997,4.7073,4.7078,4.7166,4.7186,4.7246,4.7269,4.7298,4.7323,4.7393,4.7435,4.7446,4.747,4.7519,4.7562,4.7565,4.7583,4.7606,4.7605,4.7501,4.7486,4.7472,4.7455,4.761,4.761,4.7713,4.7714,4.7715]}]]